Regional Weather Roundup
Issued by NWS Goodland, KS

Home | Current Version | Previous Version | Graphics & Text | Print | Product List | Glossary On
Versions: 1 2 3 4 5 6 7 8 9 10 11 12 13 14 15 16 17 18 19 20 21 22 23 24 25 26 27 28 29 30 31 32 33 34 35 36 37 38 39 40 41 42 43 44 45 46 47 48 49 50
000
ASUS43 KGLD 230959
RWRGLD

GOODLAND FORECAST AREA HOURLY WEATHER ROUNDUP
NATIONAL WEATHER SERVICE GOODLAND KS
400 AM MDT TUE MAY 23 2017

...OFFICIAL OBSERVATIONS...

CITY           SKY/WX    TMP DP  RH WIND       PRES   REMARKS
GOODLAND KS    CLOUDY    41  39  93 NW17      30.12F
HILL CITY KS   CLEAR     47  45  93 NW8       30.07F
IMPERIAL NEB   CLEAR     42  37  82 NW8       30.12S
MCCOOK NEB     CLEAR     44  41  89 NW13      30.08S
AKRON CO       CLEAR     36  32  85 W10       30.17F
BURLINGTON CO  CLOUDY    41  38  89 NW13      30.15S
LIMON CO       CLOUDY    37  35  92 NW17      30.19F
$$

...UNOFFICIAL OBSERVATIONS...

CITY           SKY/WX    TMP DP  RH WIND       PRES   REMARKS
LENORA KS        N/A     45  32  60 MISG        N/A
NORTON KS      CLEAR     45  39  81 NW10      30.05F
SHARON SPRINGS   N/A     42  39  90 NW8         N/A
TRENTON NEB      N/A     41  32  70 NW6         N/A
KIT CARSON CO    N/A     41  37  84 MISG        N/A
YUMA CO        FAIR      37  36  93 W9        30.16S
$$




USA.gov is the U.S. government's official web portal to all federal, state and local government web resources and services.